Time,TemperatureF,DewpointF,PressureIn,WindDirection,WindDirectionDegrees,WindSpeedMPH,WindSpeedGustMPH,Humidity,HourlyPrecipIn,Conditions,Clouds,dailyrainin,SoftwareType,DateUTC
2013-04-10 00:01:00,48.6,43.4,29.97,NNE,22,5.0,9.0,82,0.00,,,-99.99,WeatherLink 5.7,2013-04-10 04:01:00,
2013-04-10 00:11:00,48.6,43.4,29.97,NE,45,2.0,7.0,82,0.00,,,-99.99,WeatherLink 5.7,2013-04-10 04:11:00,
2013-04-10 00:22:00,48.5,43.3,29.97,NE,45,2.0,6.0,82,0.00,,,-99.99,WeatherLink 5.7,2013-04-10 04:22:00,
2013-04-10 00:31:00,48.6,43.4,29.97,NE,45,2.0,6.0,82,0.00,,,-99.99,WeatherLink 5.7,2013-04-10 04:31:00,
2013-04-10 00:41:00,48.6,43.4,29.98,NNE,22,4.0,8.0,82,0.00,,,-99.99,WeatherLink 5.7,2013-04-10 04:41:00,
2013-04-10 00:51:00,48.7,43.5,29.98,NNE,22,4.0,9.0,82,0.00,,,-99.99,WeatherLink 5.7,2013-04-10 04:51:00,
2013-04-10 01:01:00,48.8,43.9,29.98,NE,45,3.0,7.0,83,0.00,,,-99.99,WeatherLink 5.7,2013-04-10 05:01:00,
2013-04-10 01:11:00,48.8,43.9,29.98,NE,45,4.0,9.0,83,0.00,,,-99.99,WeatherLink 5.7,2013-04-10 05:11:00,
2013-04-10 01:21:00,48.8,44.2,29.99,NE,45,4.0,10.0,84,0.00,,,-99.99,WeatherLink 5.7,2013-04-10 05:21:00,
2013-04-10 01:31:00,48.7,44.1,29.99,NE,45,3.0,10.0,84,0.00,,,-99.99,WeatherLink 5.7,2013-04-10 05:31:00,
2013-04-10 01:41:00,48.6,44.0,29.99,NNE,22,7.0,12.0,84,0.00,,,-99.99,WeatherLink 5.7,2013-04-10 05:41:00,
2013-04-10 01:52:00,48.4,43.8,29.99,NNE,22,5.0,10.0,84,0.00,,,-99.99,WeatherLink 5.7,2013-04-10 05:52:00,
2013-04-10 02:01:00,48.0,43.1,29.99,NNE,22,6.0,10.0,83,0.00,,,-99.99,WeatherLink 5.7,2013-04-10 06:01:00,
2013-04-10 02:11:00,47.4,42.5,29.99,North,0,5.0,9.0,83,0.00,,,-99.99,WeatherLink 5.7,2013-04-10 06:11:00,
2013-04-10 02:21:00,47.0,42.1,29.98,NNE,22,5.0,9.0,83,0.00,,,-99.99,WeatherLink 5.7,2013-04-10 06:21:00,
2013-04-10 02:31:00,46.7,41.8,29.98,NNE,22,6.0,10.0,83,0.00,,,-99.99,WeatherLink 5.7,2013-04-10 06:31:00,
2013-04-10 02:41:00,46.4,41.5,29.97,NNE,22,6.0,10.0,83,0.00,,,-99.99,WeatherLink 5.7,2013-04-10 06:41:00,
2013-04-10 02:51:00,46.1,41.2,29.97,NNE,22,7.0,12.0,83,0.00,,,-99.99,WeatherLink 5.7,2013-04-10 06:51:00,
2013-04-10 03:01:00,45.8,40.9,29.97,NNE,22,4.0,10.0,83,0.00,,,-99.99,WeatherLink 5.7,2013-04-10 07:01:00,
2013-04-10 03:11:00,45.7,41.1,29.97,NE,45,2.0,6.0,84,0.00,,,-99.99,WeatherLink 5.7,2013-04-10 07:11:00,
2013-04-10 03:21:00,45.6,41.0,29.97,NNE,22,3.0,8.0,84,0.00,,,-99.99,WeatherLink 5.7,2013-04-10 07:21:00,
2013-04-10 03:31:00,45.4,40.8,29.97,NNE,22,3.0,7.0,84,0.00,,,-99.99,WeatherLink 5.7,2013-04-10 07:31:00,
2013-04-10 03:41:00,45.2,41.0,29.96,NE,45,3.0,8.0,85,0.00,,,-99.99,WeatherLink 5.7,2013-04-10 07:41:00,
2013-04-10 03:51:00,45.1,40.9,29.96,ENE,67,2.0,6.0,85,0.01,,,-99.99,WeatherLink 5.7,2013-04-10 07:51:00,
2013-04-10 04:01:00,45.1,40.9,29.96,ENE,67,3.0,6.0,85,0.01,,,-99.99,WeatherLink 5.7,2013-04-10 08:01:00,
2013-04-10 04:11:00,45.0,40.8,29.96,ENE,67,2.0,6.0,85,0.01,,,-99.99,WeatherLink 5.7,2013-04-10 08:11:00,
2013-04-10 04:21:00,44.9,40.7,29.95,ENE,67,1.0,5.0,85,0.01,,,-99.99,WeatherLink 5.7,2013-04-10 08:21:00,
2013-04-10 04:31:00,44.9,41.0,29.95,ENE,67,2.0,6.0,86,0.01,,,-99.99,WeatherLink 5.7,2013-04-10 08:31:00,
2013-04-10 04:41:00,44.8,40.9,29.95,ENE,67,2.0,6.0,86,0.01,,,-99.99,WeatherLink 5.7,2013-04-10 08:41:00,
2013-04-10 04:51:00,44.8,40.9,29.95,NE,45,3.0,7.0,86,0.00,,,-99.99,WeatherLink 5.7,2013-04-10 08:51:00,
2013-04-10 05:01:00,44.8,41.2,29.95,NE,45,3.0,6.0,87,0.00,,,-99.99,WeatherLink 5.7,2013-04-10 09:01:00,
2013-04-10 05:11:00,44.8,41.2,29.94,NE,45,2.0,6.0,87,0.00,,,-99.99,WeatherLink 5.7,2013-04-10 09:11:00,
2013-04-10 05:21:00,44.7,41.1,29.94,NE,45,3.0,7.0,87,0.00,,,-99.99,WeatherLink 5.7,2013-04-10 09:21:00,
2013-04-10 05:31:00,44.7,41.1,29.94,ENE,67,2.0,6.0,87,0.00,,,-99.99,WeatherLink 5.7,2013-04-10 09:31:00,
2013-04-10 05:42:00,44.7,41.1,29.94,ENE,67,2.0,6.0,87,0.00,,,-99.99,WeatherLink 5.7,2013-04-10 09:42:00,
2013-04-10 05:51:00,44.7,41.4,29.95,ENE,67,3.0,6.0,88,0.00,,,-99.99,WeatherLink 5.7,2013-04-10 09:51:00,
2013-04-10 06:01:00,44.7,41.1,29.94,ENE,67,1.0,3.0,87,0.00,,,-99.99,WeatherLink 5.7,2013-04-10 10:01:00,
2013-04-10 06:11:00,44.7,41.4,29.94,ENE,67,2.0,5.0,88,0.00,,,-99.99,WeatherLink 5.7,2013-04-10 10:11:00,
2013-04-10 06:21:00,44.6,41.3,29.94,ENE,67,2.0,7.0,88,0.00,,,-99.99,WeatherLink 5.7,2013-04-10 10:21:00,
2013-04-10 06:31:00,44.5,41.2,29.94,ENE,67,2.0,6.0,88,0.00,,,-99.99,WeatherLink 5.7,2013-04-10 10:31:00,
2013-04-10 06:41:00,44.5,41.2,29.94,ENE,67,2.0,5.0,88,0.00,,,-99.99,WeatherLink 5.7,2013-04-10 10:41:00,
2013-04-10 06:52:00,44.5,41.5,29.94,ENE,67,1.0,4.0,89,0.00,,,-99.99,WeatherLink 5.7,2013-04-10 10:52:00,
2013-04-10 07:01:00,44.4,41.4,29.94,ENE,67,1.0,4.0,89,0.00,,,-99.99,WeatherLink 5.7,2013-04-10 11:01:00,
2013-04-10 07:11:00,44.4,41.4,29.93,ENE,67,2.0,5.0,89,0.00,,,-99.99,WeatherLink 5.7,2013-04-10 11:11:00,
2013-04-10 07:21:00,44.3,41.3,29.93,ENE,67,2.0,6.0,89,0.00,,,-99.99,WeatherLink 5.7,2013-04-10 11:21:00,
2013-04-10 07:31:00,44.3,41.3,29.92,ENE,67,2.0,5.0,89,0.00,,,-99.99,WeatherLink 5.7,2013-04-10 11:31:00,
2013-04-10 07:41:00,44.3,41.3,29.94,ENE,67,4.0,8.0,89,0.00,,,-99.99,WeatherLink 5.7,2013-04-10 11:41:00,
2013-04-10 07:52:00,44.3,41.3,29.96,North,0,7.0,11.0,89,0.00,,,-99.99,WeatherLink 5.7,2013-04-10 11:52:00,
2013-04-10 08:02:00,44.3,41.3,29.96,North,0,7.0,12.0,89,0.00,,,-99.99,WeatherLink 5.7,2013-04-10 12:02:00,
2013-04-10 08:10:00,44.2,41.2,29.96,NNE,22,7.0,12.0,89,0.00,,,-99.99,WeatherLink 5.7,2013-04-10 12:10:00,
2013-04-10 08:21:00,44.1,41.1,29.97,North,0,8.0,13.0,89,0.00,,,-99.99,WeatherLink 5.7,2013-04-10 12:21:00,
2013-04-10 08:31:00,43.8,40.8,29.96,NNE,22,8.0,14.0,89,0.00,,,-99.99,WeatherLink 5.7,2013-04-10 12:31:00,
2013-04-10 08:41:00,43.5,40.8,29.96,NNE,22,6.0,11.0,90,0.00,,,-99.99,WeatherLink 5.7,2013-04-10 12:41:00,
2013-04-10 08:51:00,43.4,40.7,29.95,NE,45,5.0,13.0,90,0.00,,,-99.99,WeatherLink 5.7,2013-04-10 12:51:00,
2013-04-10 09:01:00,43.4,40.4,29.94,NNE,22,6.0,11.0,89,0.00,,,-99.99,WeatherLink 5.7,2013-04-10 13:01:00,
2013-04-10 09:11:00,43.3,40.6,29.94,NE,45,6.0,12.0,90,0.00,,,-99.99,WeatherLink 5.7,2013-04-10 13:11:00,
2013-04-10 09:22:00,43.1,40.1,29.94,NNE,22,8.0,16.0,89,0.00,,,-99.99,WeatherLink 5.7,2013-04-10 13:22:00,
2013-04-10 09:32:00,42.9,40.2,29.94,NNE,22,8.0,14.0,90,0.00,,,-99.99,WeatherLink 5.7,2013-04-10 13:32:00,
2013-04-10 09:41:00,42.7,40.0,29.96,NNE,22,7.0,12.0,90,0.00,,,-99.99,WeatherLink 5.7,2013-04-10 13:41:00,
2013-04-10 09:51:00,42.5,39.5,29.95,NNE,22,7.0,14.0,89,0.00,,,-99.99,WeatherLink 5.7,2013-04-10 13:51:00,
2013-04-10 10:01:00,42.3,39.6,29.95,NNE,22,7.0,16.0,90,0.00,,,-99.99,WeatherLink 5.7,2013-04-10 14:01:00,
2013-04-10 10:11:00,42.2,39.5,29.94,NE,45,5.0,11.0,90,0.00,,,-99.99,WeatherLink 5.7,2013-04-10 14:11:00,
2013-04-10 10:21:00,42.2,39.5,29.93,NE,45,5.0,10.0,90,0.00,,,-99.99,WeatherLink 5.7,2013-04-10 14:21:00,
2013-04-10 10:31:00,42.3,39.6,29.94,NE,45,5.0,11.0,90,0.00,,,-99.99,WeatherLink 5.7,2013-04-10 14:31:00,
2013-04-10 10:41:00,42.5,39.8,29.94,NE,45,4.0,10.0,90,0.00,,,-99.99,WeatherLink 5.7,2013-04-10 14:41:00,
2013-04-10 10:51:00,42.5,39.8,29.93,NE,45,4.0,10.0,90,0.00,,,-99.99,WeatherLink 5.7,2013-04-10 14:51:00,
2013-04-10 11:01:00,42.5,39.8,29.93,East,90,4.0,9.0,90,0.00,,,-99.99,WeatherLink 5.7,2013-04-10 15:01:00,
2013-04-10 11:11:00,42.8,40.1,29.93,East,90,3.0,9.0,90,0.00,,,-99.99,WeatherLink 5.7,2013-04-10 15:11:00,
2013-04-10 11:21:00,43.0,40.3,29.93,ESE,112,3.0,7.0,90,0.00,,,-99.99,WeatherLink 5.7,2013-04-10 15:21:00,
2013-04-10 11:32:00,43.3,40.6,29.93,East,90,5.0,10.0,90,0.00,,,-99.99,WeatherLink 5.7,2013-04-10 15:32:00,
2013-04-10 11:42:00,43.5,40.8,29.93,East,90,4.0,10.0,90,0.00,,,-99.99,WeatherLink 5.7,2013-04-10 15:42:00,
2013-04-10 11:51:00,43.8,41.1,29.92,ENE,67,4.0,8.0,90,0.00,,,-99.99,WeatherLink 5.7,2013-04-10 15:51:00,
2013-04-10 12:01:00,44.0,41.3,29.91,East,90,4.0,9.0,90,0.01,,,-99.99,WeatherLink 5.7,2013-04-10 16:01:00,
2013-04-10 12:11:00,44.3,41.6,29.91,East,90,3.0,7.0,90,0.01,,,-99.99,WeatherLink 5.7,2013-04-10 16:11:00,
2013-04-10 12:22:00,44.3,41.8,29.93,East,90,2.0,7.0,91,0.01,,,-99.99,WeatherLink 5.7,2013-04-10 16:22:00,
2013-04-10 12:31:00,44.2,41.5,29.97,North,0,6.0,17.0,90,0.05,,,-99.99,WeatherLink 5.7,2013-04-10 16:31:00,
2013-04-10 12:41:00,44.1,41.6,29.97,NNW,337,9.0,18.0,91,0.11,,,-99.99,WeatherLink 5.7,2013-04-10 16:41:00,
2013-04-10 12:51:00,44.2,41.5,29.97,North,0,8.0,15.0,90,0.12,,,-99.99,WeatherLink 5.7,2013-04-10 16:51:00,
2013-04-10 13:01:00,44.1,41.4,29.97,North,0,5.0,12.0,90,0.11,,,-99.99,WeatherLink 5.7,2013-04-10 17:01:00,
2013-04-10 13:11:00,44.0,41.5,29.97,North,0,7.0,11.0,91,0.11,,,-99.99,WeatherLink 5.7,2013-04-10 17:11:00,
2013-04-10 13:21:00,43.9,41.2,29.96,North,0,7.0,11.0,90,0.12,,,-99.99,WeatherLink 5.7,2013-04-10 17:21:00,
2013-04-10 13:31:00,43.6,41.1,29.91,NNE,22,5.0,13.0,91,0.08,,,-99.99,WeatherLink 5.7,2013-04-10 17:31:00,
2013-04-10 13:41:00,43.6,41.1,29.90,East,90,6.0,14.0,91,0.02,,,-99.99,WeatherLink 5.7,2013-04-10 17:41:00,
2013-04-10 13:52:00,43.7,41.2,29.89,ESE,112,4.0,11.0,91,0.01,,,-99.99,WeatherLink 5.7,2013-04-10 17:52:00,
2013-04-10 14:01:00,43.9,41.4,29.87,East,90,5.0,10.0,91,0.01,,,-99.99,WeatherLink 5.7,2013-04-10 18:01:00,
2013-04-10 14:11:00,43.9,41.4,29.90,ESE,112,3.0,9.0,91,0.02,,,-99.99,WeatherLink 5.7,2013-04-10 18:11:00,
2013-04-10 14:21:00,44.0,41.5,29.88,ENE,67,3.0,7.0,91,0.04,,,-99.99,WeatherLink 5.7,2013-04-10 18:21:00,
2013-04-10 14:31:00,44.0,41.5,29.92,NE,45,2.0,6.0,91,0.05,,,-99.99,WeatherLink 5.7,2013-04-10 18:31:00,
2013-04-10 14:41:00,44.1,41.6,29.87,ENE,67,3.0,8.0,91,0.16,,,-99.99,WeatherLink 5.7,2013-04-10 18:41:00,
2013-04-10 14:52:00,44.1,41.6,29.85,ESE,112,5.0,11.0,91,0.25,,,-99.99,WeatherLink 5.7,2013-04-10 18:52:00,
2013-04-10 15:01:00,44.1,41.6,29.86,East,90,4.0,9.0,91,0.27,,,-99.99,WeatherLink 5.7,2013-04-10 19:01:00,
2013-04-10 15:12:00,44.3,41.8,29.89,NE,45,4.0,9.0,91,0.26,,,-99.99,WeatherLink 5.7,2013-04-10 19:12:00,
2013-04-10 15:21:00,44.7,42.2,29.87,NNE,22,8.0,13.0,91,0.23,,,-99.99,WeatherLink 5.7,2013-04-10 19:21:00,
2013-04-10 15:32:00,44.9,42.7,29.89,NNE,22,6.0,14.0,92,0.22,,,-99.99,WeatherLink 5.7,2013-04-10 19:32:00,
2013-04-10 15:41:00,44.9,42.7,29.90,ENE,67,3.0,8.0,92,0.11,,,-99.99,WeatherLink 5.7,2013-04-10 19:41:00,
2013-04-10 15:51:00,44.9,42.7,29.91,NNE,22,6.0,11.0,92,0.02,,,-99.99,WeatherLink 5.7,2013-04-10 19:51:00,
2013-04-10 16:01:00,45.2,43.0,29.92,North,0,5.0,12.0,92,0.00,,,-99.99,WeatherLink 5.7,2013-04-10 20:01:00,
2013-04-10 16:11:00,45.2,43.0,29.91,North,0,7.0,12.0,92,0.00,,,-99.99,WeatherLink 5.7,2013-04-10 20:11:00,
2013-04-10 16:21:00,45.1,42.9,29.92,NNE,22,7.0,15.0,92,0.00,,,-99.99,WeatherLink 5.7,2013-04-10 20:21:00,
2013-04-10 16:31:00,45.1,42.6,29.93,North,0,7.0,11.0,91,0.00,,,-99.99,WeatherLink 5.7,2013-04-10 20:31:00,
2013-04-10 16:42:00,45.2,43.0,29.94,North,0,7.0,11.0,92,0.00,,,-99.99,WeatherLink 5.7,2013-04-10 20:42:00,
2013-04-10 16:51:00,45.0,42.5,29.94,North,0,8.0,13.0,91,0.00,,,-99.99,WeatherLink 5.7,2013-04-10 20:51:00,
2013-04-10 17:01:00,44.8,42.3,29.94,North,0,10.0,16.0,91,0.00,,,-99.99,WeatherLink 5.7,2013-04-10 21:01:00,
2013-04-10 17:11:00,44.7,42.2,29.94,North,0,10.0,17.0,91,0.00,,,-99.99,WeatherLink 5.7,2013-04-10 21:11:00,
2013-04-10 17:21:00,44.5,42.0,29.94,North,0,9.0,14.0,91,0.00,,,-99.99,WeatherLink 5.7,2013-04-10 21:21:00,
2013-04-10 17:31:00,44.5,42.0,29.95,North,0,6.0,11.0,91,0.00,,,-99.99,WeatherLink 5.7,2013-04-10 21:31:00,
2013-04-10 17:41:00,44.4,41.9,29.95,North,0,8.0,13.0,91,0.00,,,-99.99,WeatherLink 5.7,2013-04-10 21:41:00,
2013-04-10 17:51:00,44.5,42.0,29.95,North,0,8.0,14.0,91,0.00,,,-99.99,WeatherLink 5.7,2013-04-10 21:51:00,
2013-04-10 18:01:00,44.5,41.7,29.94,North,0,10.0,17.0,90,0.00,,,-99.99,WeatherLink 5.7,2013-04-10 22:01:00,
2013-04-10 18:11:00,44.5,41.7,29.93,North,0,9.0,14.0,90,0.00,,,-99.99,WeatherLink 5.7,2013-04-10 22:11:00,
2013-04-10 18:21:00,44.3,41.6,29.93,NNE,22,10.0,16.0,90,0.00,,,-99.99,WeatherLink 5.7,2013-04-10 22:21:00,
2013-04-10 18:31:00,44.1,41.1,29.93,NE,45,6.0,13.0,89,0.00,,,-99.99,WeatherLink 5.7,2013-04-10 22:31:00,
2013-04-10 18:41:00,43.9,40.9,29.96,NNE,22,5.0,10.0,89,0.01,,,-99.99,WeatherLink 5.7,2013-04-10 22:41:00,
2013-04-10 18:52:00,43.7,40.7,29.95,NNE,22,7.0,13.0,89,0.02,,,-99.99,WeatherLink 5.7,2013-04-10 22:52:00,
2013-04-10 19:01:00,43.5,40.5,29.95,NNE,22,7.0,12.0,89,0.03,,,-99.99,WeatherLink 5.7,2013-04-10 23:01:00,
2013-04-10 19:11:00,43.3,40.3,29.94,NE,45,4.0,9.0,89,0.03,,,-99.99,WeatherLink 5.7,2013-04-10 23:11:00,
2013-04-10 19:22:00,43.1,40.1,29.95,NE,45,6.0,12.0,89,0.04,,,-99.99,WeatherLink 5.7,2013-04-10 23:22:00,
2013-04-10 19:31:00,43.1,40.1,29.94,NE,45,4.0,9.0,89,0.04,,,-99.99,WeatherLink 5.7,2013-04-10 23:31:00,
2013-04-10 19:41:00,42.9,39.9,29.95,NE,45,8.0,16.0,89,0.03,,,-99.99,WeatherLink 5.7,2013-04-10 23:41:00,
2013-04-10 19:51:00,42.6,39.6,29.95,NE,45,7.0,12.0,89,0.02,,,-99.99,WeatherLink 5.7,2013-04-10 23:51:00,
2013-04-10 20:01:00,42.4,39.4,29.95,NE,45,8.0,15.0,89,0.01,,,-99.99,WeatherLink 5.7,2013-04-11 00:01:00,
2013-04-10 20:11:00,42.3,39.3,29.95,NNE,22,8.0,14.0,89,0.01,,,-99.99,WeatherLink 5.7,2013-04-11 00:11:00,
2013-04-10 20:22:00,42.3,39.3,29.96,NE,45,5.0,11.0,89,0.00,,,-99.99,WeatherLink 5.7,2013-04-11 00:22:00,
2013-04-10 20:31:00,42.2,39.2,29.96,NNE,22,5.0,11.0,89,0.00,,,-99.99,WeatherLink 5.7,2013-04-11 00:31:00,
2013-04-10 20:42:00,42.1,39.1,29.97,NNE,22,7.0,12.0,89,0.00,,,-99.99,WeatherLink 5.7,2013-04-11 00:42:00,
2013-04-10 20:51:00,42.0,39.3,29.98,NNE,22,6.0,11.0,90,0.00,,,-99.99,WeatherLink 5.7,2013-04-11 00:51:00,
2013-04-10 21:01:00,41.9,38.9,29.98,NNE,22,6.0,10.0,89,0.00,,,-99.99,WeatherLink 5.7,2013-04-11 01:01:00,
2013-04-10 21:12:00,41.9,38.9,29.97,NNE,22,7.0,11.0,89,0.00,,,-99.99,WeatherLink 5.7,2013-04-11 01:12:00,
2013-04-10 21:21:00,41.8,38.8,29.98,NNE,22,6.0,11.0,89,0.00,,,-99.99,WeatherLink 5.7,2013-04-11 01:21:00,
2013-04-10 21:31:00,41.7,39.0,29.96,NE,45,4.0,9.0,90,0.00,,,-99.99,WeatherLink 5.7,2013-04-11 01:31:00,
2013-04-10 21:41:00,41.6,38.9,29.97,NNE,22,5.0,10.0,90,0.00,,,-99.99,WeatherLink 5.7,2013-04-11 01:41:00,
2013-04-10 21:51:00,41.6,38.9,29.95,NE,45,5.0,10.0,90,0.00,,,-99.99,WeatherLink 5.7,2013-04-11 01:51:00,
2013-04-10 22:01:00,41.6,38.6,29.96,ENE,67,2.0,8.0,89,0.00,,,-99.99,WeatherLink 5.7,2013-04-11 02:01:00,
2013-04-10 22:11:00,41.5,38.8,29.97,ENE,67,3.0,8.0,90,0.00,,,-99.99,WeatherLink 5.7,2013-04-11 02:11:00,
2013-04-10 22:21:00,41.5,38.8,29.96,ENE,67,3.0,7.0,90,0.00,,,-99.99,WeatherLink 5.7,2013-04-11 02:21:00,
2013-04-10 22:31:00,41.5,38.8,29.96,NE,45,3.0,8.0,90,0.00,,,-99.99,WeatherLink 5.7,2013-04-11 02:31:00,
2013-04-10 22:41:00,41.5,38.8,29.96,NE,45,3.0,7.0,90,0.00,,,-99.99,WeatherLink 5.7,2013-04-11 02:41:00,
2013-04-10 22:51:00,41.6,38.9,29.97,NE,45,3.0,7.0,90,0.00,,,-99.99,WeatherLink 5.7,2013-04-11 02:51:00,
2013-04-10 23:01:00,41.6,38.9,29.95,NE,45,3.0,10.0,90,0.00,,,-99.99,WeatherLink 5.7,2013-04-11 03:01:00,
2013-04-10 23:11:00,41.6,38.9,29.95,NE,45,4.0,11.0,90,0.00,,,-99.99,WeatherLink 5.7,2013-04-11 03:11:00,
2013-04-10 23:22:00,41.6,38.9,29.97,NE,45,5.0,12.0,90,0.00,,,-99.99,WeatherLink 5.7,2013-04-11 03:22:00,
2013-04-10 23:31:00,41.6,38.9,29.98,ENE,67,4.0,9.0,90,0.00,,,-99.99,WeatherLink 5.7,2013-04-11 03:31:00,
2013-04-10 23:41:00,41.6,38.9,29.96,NE,45,5.0,12.0,90,0.00,,,-99.99,WeatherLink 5.7,2013-04-11 03:41:00,
2013-04-10 23:52:00,41.6,39.2,29.97,NE,45,4.0,12.0,91,0.00,,,-99.99,WeatherLink 5.7,2013-04-11 03:52:00,